METEOSAT-11 (MSG-4)

Last updated on Sun Nov 16 2025 00:03:08 GMT+0000 (Coordinated Universal Time)

1 40732U 15034A 25319.23993396 .00000069 00000+0 00000+0 0 9996 2 40732 2.6653 72.0625 0000472 115.9783 322.1911 1.00272097 5078
UTC large
Height (km)
Speed (km/s)
/
Latitude / Longitude
Inclination (degrees)
Orbital Period (minutes)
Azimuth
Elevation
Range (km)
Doppler Factor

Next 0 passes for location: London (51.5072 / 0.1276)

Sorry there are no passes over London.